Terminal Aerodrome Forecast
Issued by NWS New Orleans/Baton Rouge, LA

Home | Current Version | Previous Version | Text Only | Print | Product List | Glossary On
Versions: 1 2 3 4 5 6 7 8 9 10 11 12 13 14 15 16 17 18 19 20
000
FTUS44 KLIX 210430 AAA
TAFNEW
TAF AMD
KNEW 210430Z 2105/2124 11011KT 4SM -RA BKN022 OVC030
      TEMPO 2105/2106 VRB15G25KT 2SM SHRA BR BKN012
     FM210600 15009KT 5SM -SHRA BR OVC010
     FM210900 24011KT 5SM -SHRA BR OVC010
     FM211200 31009KT 4SM -SHRA BR OVC010
     FM211700 31006KT 3SM -SHRA BR BKN010 BKN025=

USA.gov is the U.S. government's official web portal to all federal, state and local government web resources and services.